STARLINK-35929, 66625

Orbit data source: Space-Track

STARLINK-35929, 66625 is a payload satellite owned by SpaceX/Seattle (US) in LEO that was launched on Sun, 23 Nov 2025 UTC via an FALCON 9 launch vehicle from the Air Force Western Test Range (AFWTR). Payload-class satellites include a variety of spacecraft equipped with specific instruments for various scientific and technological missions. These include communications satellites like Starlink; space stations such as the ISS; scientific satellites like the Hubble; Earth observation satellites from companies like Planet Labs, Umbra, and HawkEye 360; GPS; miniature CubeSats for education and research; and military/defense satellites.

Loading next visibility...
Identifier
66625, 2025-271J
Orbit
LEO
Country
Flag of USUS
Related business
Manufacturer
SpaceX/Seattle
Mission
Operational Commercial Communications
Bus & Motor
STARLINK V2MO, Unknown motor
Mass
575 kg wet, ~530 kg dry
Launch date (UTC)
2025-11-23 (5 months ago)
Launch vehicle
FALCON 9
Launch site
Air Force Western Test Range (AFWTR)
Object type
Payload
Rocket body
Debris
Shape & HBR
Box + 2 Pan, 17.7 m
Radar Cross Section
36.964 m²

Expand to show TLE details & history
Last TLE update: 7 hours ago

TLE from 7 hours ago
0 STARLINK-35929
1 66625U 25271J   26128.25002315  .00052007  00000-0  15398-2 0  9991
2 66625  53.1601 222.0306 0002076  74.6425 272.0803 15.34397089  5872
Epoch: 2026-05-08T06:00Z
TLE epoch observation values (Epoch: 2026-05-08T06:00:02.000Z)
Latitude
-10.75176°
Longitude
-102.19532°
Altitude
465.577 km
Speed
7.634 km/s
True Right ascension
14h 15m 35s
True Declination
-10° 41' 10"
Sunlit
Object was in full shadow at epoch
Visualization orbit readout
Latitude
Unknown
Longitude
Unknown
Altitude
Unknown
Speed
Unknown
Apparent Right ascension
Unknown
Apparent Declination
Unknown
Sunlit
N/A
Visualization observer readout
Local Sidereal Time
20:53:09
Azimuth
Unknown
Elevation
Unknown
Doppler factor
Unknown
Orbital elements
Apogee altitude
464.389 km
Perigee altitude
461.549 km
Semi-major axis
6,841.106 km
Eccentricity
0.00021
Inclination
53.1601°
RAAN
222.0306°
Arg. of periapsis
74.6425°
True anomaly
272.05653°
Mean anomaly
272.0803°
Eccentric anomaly
272.06841°
Mean motion
3.83578 °/min
Orbital period
93.85 mins
BSTAR
0.0015398
Loading maneuver chart data...
Computing Atmospheric mass density...
Loading historical data...
Loading historical data...
Loading historical data...
Loading historical data...
Loading historical data...
Loading historical data...
Loading historical data...

Documentation

Showing up to 5 results
|